Hourly Weather Roundup
Issued by NWS Central Illinois

Home | Current Version | Previous Version | Text Only | Print | Product List | Glossary On
Versions: 1 2 3 4 5 6 7 8 9 10 11 12 13 14 15 16 17 18 19 20 21 22 23 24 25 26 27 28 29 30 31 32 33 34 35 36 37 38 39 40 41 42 43 44 45 46 47 48 49 50
000
NZUS43 KILX 262210
HWRILX

AREA WEATHER ROUNDUP
NATIONAL WEATHER SERVICE, LINCOLN IL
400 PM CST WED NOV 26 2014


CITY           SKY/WX    TMP DP  RH WIND       PRES   REMARKS
BLOOMINGTON    CLOUDY    28  24  85 E9        30.08R WCI  19
CHAMPAIGN      CLOUDY    29  24  82 E7        30.07R WCI  22
DECATUR        LGT SNOW  29  26  89 E13       30.06S VSB 3/4 WCI  19
FLORA          LGT SNOW  33  32  94 NE6       30.04S WCI  28
GALESBURG      LGT SNOW  30  27  91 E9        30.05R WCI  21
JACKSONVILLE   SNOW      34  32  93 E8        30.03R VSB 1/2 WCI  27
LACON          CLOUDY    28  23  81 E7        30.09S WCI  21
LAWRENCEVILLE  CLOUDY    38  29  70 N6        30.05R WCI  33
LITCHFIELD     LGT SNOW  32  30  94 E6        30.01S VSB 3/4 WCI  26
$$


CITY           SKY/WX    TMP DP  RH WIND       PRES   REMARKS
LINCOLN        LGT SNOW  31  28  91 E12       30.07R WCI  21
MACOMB         LGT SNOW  30  30  99 E12       30.07R VSB 3/4 WCI  21
MATTOON        CLOUDY    30  24  78 CALM      30.05R
MT CARMEL AP   CLOUDY    39  30  70 NE5       30.04S
OLNEY-NOBLE AP CLOUDY    36  30  80 CALM      30.04S
PARIS          MOCLDY    33  26  77 CALM      30.07R
PEORIA         CLOUDY    31  25  78 E15       30.06S HAZE    WCI  20
PONTIAC        CLOUDY    29  25  82 E8        30.10S WCI  21
RANTOUL        CLOUDY    31  25  77 NE7       30.07S WCI  24
ROBINSON       CLOUDY    35  27  74 NE3       30.06S
SPRINGFIELD    LGT SNOW  31  29  92 E14       30.04R FOG     WCI  21
TAYLORVILLE    LGT SNOW  30  30 100 E12       30.03S WCI  21
$$

...REGIONAL REPORTS...


CITY           SKY/WX    TMP DP  RH WIND       PRES   REMARKS
CHICAGO O`HARE CLOUDY    28  21  75 E7        30.11R WCI  21
KANKAKEE       CLOUDY   N/A N/A N/A E5        30.11S
MOLINE         CLOUDY    29  24  82 E12       30.09R WCI  19
MOUNT VERNON   CLOUDY    34  28  80 E3        30.03R VSB 1
PITTSFIELD     CLOUDY    33  32  96 E7        30.02R WCI  27
QUINCY         CLOUDY    32  30  92 E9        30.00R FOG     WCI  24
ROCKFORD       CLOUDY    26  18  71 CALM      30.15R
$$


CITY           SKY/WX    TMP DP  RH WIND       PRES   REMARKS
BURLINGTON     SNOW      31  29  92 E12       30.04R VSB 1/2 WCI  22
CEDAR RAPIDS   LGT SNOW  29  25  85 NE13      30.09R FOG     WCI  19
DES MOINES     LGT SNOW  32  27  81 N10       30.11R WCI  24
KIRKSVILLE     LGT SNOW  33  33 100 NE5       29.99R VSB 1   WCI  29
OTTUMWA        LGT SNOW  31  28  89 NE9       30.05R FOG     WCI  23
ST LOUIS       LGT SNOW  34  32  92 CALM      30.01R FOG
$$


CITY           SKY/WX    TMP DP  RH WIND       PRES   REMARKS
TERRE HAUTE    PTCLDY    35  24  64 CALM      30.05S
EVANSVILLE     CLOUDY    40  29  64 E6        30.03S
INDIANAPOLIS   MOCLDY    32  23  69 E5        30.04S WCI  27
LAFAYETTE      MOCLDY    29  22  75 NE7       30.08S WCI  22
MADISON        CLOUDY    20  16  84 N6        30.16R FOG     WCI  12
MILWAUKEE      CLOUDY    30  21  69 CALM      30.13R
$$





USA.gov is the U.S. government's official web portal to all federal, state and local government web resources and services.